CAPE
2 1 0 0 0 0 0 0 0 1 2 2 3 3 4 2 0 0 0 0 0 0 0 0 0 0 0 0 0 0 0 0 0 0 0 0 0 0 0 0 0 0 0 333 1616
1 1 0 0 0 0 0 1 1 0 0 0 3 4 3 0 0 0 0 0 0 0 0 0 0 0 0 0 0 0 0 0 0 0 0 0 0 0 0 0 0 0 0 594 1614
0 0 0 0 0 0 0 0 1 2 7 9 4 4 4 0 0 0 0 0 0 0 0 0 0 0 0 0 0 0 0 0 0 0 0 0 0 0 0 0 0 0 0 421 1473
0 0 0 0 0 0 0 0 1 1 2 3 5 4 10 0 0 0 0 0 0 0 0 0 0 0 0 0 0 0 0 0 0 0 0 0 0 0 0 0 0 0 0 832 1250
0 0 0 0 0 0 0 0 0 0 3 5 2 4 0 0 0 0 0 0 0 0 0 0 0 0 0 0 0 0 0 0 0 0 0 0 0 0 0 0 0 0 0 23 582
2 1 2 2 1 1 0 0 0 0 0 4 3 10 1 0 0 0 0 0 0 0 0 0 0 0 0 0 0 0 0 0 0 0 0 0 0 0 0 0 0 0 0 0 0
2 1 4 5 3 1 0 0 0 0 0 2 0 0 0 0 0 0 0 0 0 0 0 0 0 0 0 0 0 0 0 0 0 0 0 0 0 0 0 0 0 0 0 0 0
2 2 1 2 0 0 0 0 0 0 0 0 0 0 0 0 0 0 0 0 0 0 0 0 0 0 0 0 0 0 0 0 0 0 0 0 0 0 0 0 0 0 0 0 0
1 0 0 0 0 0 0 0 0 0 0 0 0 0 0 0 0 0 0 0 0 0 0 0 0 0 0 0 0 0 0 0 0 0 0 0 0 0 0 0 0 0 0 0 0
1 1 0 0 0 0 0 0 0 0 0 0 0 0 0 0 0 0 0 0 0 0 0 0 0 0 0 0 0 0 0 0 0 0 0 0 0 0 0 0 0 0 0 0 0
0 0 0 0 0 0 0 0 0 0 0 0 0 0 0 0 0 0 0 0 0 0 0 0 0 0 0 0 0 0 0 0 0 0 0 0 0 0 0 0 0 0 0 0 0
0 0 0 0 0 0 0 0 0 0 0 0 0 0 0 0 0 0 0 0 0 0 0 0 0 0 0 0 0 0 0 0 0 0 0 0 0 0 0 0 0 0 0 0 0
0 0 0 0 0 0 0 0 0 0 0 0 0 0 0 0 0 5 8 0 0 0 0 0 0 0 0 0 0 0 0 0 0 0 0 0 0 0 0 0 0 0 0 0 0
0 0 0 0 0 0 0 0 0 0 0 0 0 0 0 0 0 13 51 3 0 0 0 0 0 0 0 0 2 0 0 0 0 0 0 0 0 0 0 0 0 0 0 0 0
0 0 0 0 0 0 0 0 0 0 0 0 0 0 0 0 0 0 0 1 0 0 0 0 0 0 0 0 0 0 0 0 0 0 0 0 0 0 0 0 0 0 0 0 0
0 0 0 0 0 0 0 0 0 0 0 0 0 0 0 0 0 0 0 0 0 0 0 0 0 0 0 8 12 3 18 1 2 0 0 0 0 0 0 0 0 0 0 0 0
0 0 0 0 0 0 0 0 0 0 0 0 0 0 0 0 0 0 0 0 0 0 0 0 0 4 4 1 2 15 12 9 14 8 1 0 0 0 0 0 0 0 0 0 0
0 0 0 0 0 0 0 0 0 0 0 0 0 0 0 0 0 0 0 0 1 2 1 0 0 10 5 5 0 0 2 6 0 0 0 0 3 0 0 0 0 0 0 0 0
0 0 0 0 0 0 0 0 0 0 0 0 0 0 0 0 0 0 0 0 5 6 0 0 0 0 0 0 2 0 1 0 3 2 0 0 0 0 0 0 0 0 0 0 0
0 0 0 0 0 0 0 0 0 0 4 0 0 0 0 0 1 0 0 0 0 0 3 3 1 0 2 0 1 0 3 2 8 0 0 0 0 0 0 0 0 0 0 0 0
0 0 0 0 0 0 0 0 0 0 2 0 0 0 0 0 1 3 0 0 0 0 0 1 0 0 0 0 0 0 0 2 0 7 2 0 0 0 0 0 0 0 0 0 0
0 0 0 0 0 0 0 0 0 0 0 0 0 1 2 0 0 1 6 24 0 16 0 0 1 0 0 0 0 0 0 7 8 0 0 0 0 0 0 0 0 0 0 0 0
0 0 0 0 0 0 0 0 0 0 0 0 0 1 10 2 0 0 1 0 2 0 0 0 0 0 0 0 0 0 1 3 3 2 0 0 0 7 0 0 0 0 9 139 499
0 0 0 0 0 0 0 0 0 0 0 0 1 1 6 4 2 2 2 0 3 23 29 6 19 0 0 0 0 0 0 2 0 3 0 0 0 15 5 0 0 0 733 604 1059
0 0 0 0 0 0 0 0 0 0 0 0 0 9 1 0 1 1 2 7 12 7 1 1 0 2 1 2 3 1 0 0 0 1 0 0 0 61 10 0 0 0 1072 981 1130
0 0 0 2 0 0 0 0 0 0 2 0 2 0 0 1 0 1 7 1 1 0 0 0 0 0 0 0 0 0 0 0 0 14 0 2 2 101 23 41 27 85 941 971 889
0 1 5 0 1 0 0 0 1 2 0 0 0 1 1 3 5 5 2 2 1 1 1 0 1 0 0 0 0 0 5 2 0 18 1 0 0 0 0 0 0 0 16 798 522
CIN
-0 -0 -0 -0 -0 -0 -0 -0 -0 -0 -0 -0 -0 -0 -0 -0 -0 -0 -0 -0 -0 -0 -0 -0 -0 -0 -0 -0 -0 -0 -0 -0 -0 -0 -0 -0 -0 -0 -0 -0 -0 -0 -0 -87 -178
-0 -0 -0 -0 -0 -0 -0 -0 -0 -0 -0 -0 -0 -0 -0 -0 -0 -0 -0 -0 -0 -0 -0 -0 -0 -0 -0 -0 -0 -0 -0 -0 -0 -0 -0 -0 -0 -0 -0 -0 -0 -0 -0 -123 -149
-0 -0 -0 -0 -0 -0 -0 -0 -0 -0 -0 -0 -0 -0 -0 -0 -0 -0 -0 -0 -0 -0 -0 -0 -0 -0 -0 -0 -0 -0 -0 -0 -0 -0 -0 -0 -0 -0 -0 -0 -0 -0 -0 -129 -116
-0 -0 -0 -0 -0 -0 -0 -0 -0 -0 -0 -0 -0 -0 -1 -0 -0 -0 -0 -0 -0 -0 -0 -0 -0 -0 -0 -0 -0 -0 -0 -0 -0 -0 -0 -0 -0 -0 -0 -0 -0 -0 -0 -105 -119
-0 -0 -0 -0 -0 -0 -0 -0 -0 -0 -0 -0 -0 -0 -1 -0 -0 -0 -0 -0 -0 -0 -0 -0 -0 -0 -0 -0 -0 -0 -0 -0 -0 -0 -0 -0 -0 -0 -0 -0 -0 -0 -0 -78 -101
-0 -0 -0 -0 -0 -0 -0 -0 -0 -0 -0 -0 -0 -2 -1 -0 -0 -0 -0 -0 -0 -0 -0 -0 -0 -0 -0 -0 -0 -0 -0 -0 -0 -0 -0 -0 -0 -0 -0 -0 -0 -0 -0 -0 -0
-0 -0 -0 -0 -0 -0 -0 -0 -0 -0 -0 -0 -0 -0 -0 -0 -0 -0 -0 -0 -0 -0 -0 -0 -0 -0 -0 -0 -0 -0 -0 -0 -0 -0 -0 -0 -0 -0 -0 -0 -0 -0 -0 -0 -0
-0 -0 -0 -0 -0 -0 -0 -0 -0 -0 -0 -0 -0 -0 -0 -0 -0 -0 -0 -0 -0 -0 -0 -0 -0 -0 -0 -0 -0 -0 -0 -0 -0 -0 -0 -0 -0 -0 -0 -0 -0 -0 -0 -0 -0
-0 -0 -0 -0 -0 -0 -0 -0 -0 -0 -0 -0 -0 -0 -0 -0 -0 -0 -0 -0 -0 -0 -0 -0 -0 -0 -0 -0 -0 -0 -0 -0 -0 -0 -0 -0 -0 -0 -0 -0 -0 -0 -0 -0 -0
-0 -0 -0 -0 -0 -0 -0 -0 -0 -0 -0 -0 -0 -0 -0 -0 -0 -0 -0 -0 -0 -0 -0 -0 -0 -0 -0 -0 -0 -0 -0 -0 -0 -0 -0 -0 -0 -0 -0 -0 -0 -0 -0 -0 -0
-0 -0 -0 -0 -0 -0 -0 -0 -0 -0 -0 -0 -0 -0 -0 -0 -0 -0 -0 -0 -0 -0 -0 -0 -0 -0 -0 -0 -0 -0 -0 -0 -0 -0 -0 -0 -0 -0 -0 -0 -0 -0 -0 -0 -0
-0 -0 -0 -0 -0 -0 -0 -0 -0 -0 -0 -0 -0 -0 -0 -0 -0 -0 -0 -0 -0 -0 -0 -0 -0 -0 -0 -0 -0 -0 -0 -0 -0 -0 -0 -0 -0 -0 -0 -0 -0 -0 -0 -0 -0
-0 -0 -0 -0 -0 -0 -0 -0 -0 -0 -0 -0 -0 -0 -0 -0 -0 -37 -31 -0 -0 -0 -0 -0 -0 -0 -0 -0 -0 -0 -0 -0 -0 -0 -0 -0 -0 -0 -0 -0 -0 -0 -0 -0 -0
-0 -0 -0 -0 -0 -0 -0 -0 -0 -0 -0 -0 -0 -0 -0 -0 -0 -22 -24 -20 -0 -0 -0 -0 -0 -0 -0 -0 -5 -0 -0 -0 -0 -0 -0 -0 -0 -0 -0 -0 -0 -0 -0 -0 -0
-0 -0 -0 -0 -0 -0 -0 -0 -0 -0 -0 -0 -0 -0 -0 -0 -0 -0 -4 -72 -0 -0 -0 -0 -0 -0 -0 -0 -0 -0 -0 -0 -0 -0 -0 -0 -0 -0 -0 -0 -0 -0 -0 -0 -0
-0 -0 -0 -0 -0 -0 -0 -0 -0 -0 -0 -0 -0 -0 -0 -0 -0 -0 -0 -0 -0 -0 -0 -0 -0 -0 -23 -18 -16 -12 -4 -12 -11 -5 -0 -0 -0 -0 -0 -0 -0 -0 -0 -0 -0
-0 -0 -0 -0 -0 -0 -0 -0 -0 -0 -0 -0 -0 -0 -0 -0 -0 -0 -0 -0 -0 -0 -0 -0 -13 -30 -32 -10 -9 -11 -19 -4 -5 -6 -1 -0 -0 -0 -0 -0 -0 -0 -0 -0 -0
-0 -0 -0 -0 -0 -0 -0 -0 -0 -0 -0 -0 -0 -0 -0 -0 -0 -0 -0 -0 -0 -0 -0 -0 -1 -38 -36 -16 -0 -0 -24 -5 -6 -0 -0 -0 -4 -0 -0 -0 -0 -0 -0 -0 -0
-0 -0 -0 -0 -0 -0 -0 -0 -0 -0 -0 -0 -0 -0 -0 -0 -0 -0 -0 -0 -0 -0 -0 -0 -0 -0 -0 -0 -6 -8 -3 -0 -7 -4 -2 -0 -0 -0 -0 -0 -0 -0 -0 -0 -0
-0 -0 -0 -0 -0 -0 -0 -0 -0 -0 -4 -0 -0 -0 -0 -0 -1 -0 -0 -0 -1 -0 -2 -2 -0 -0 -2 -0 -26 -0 -53 -5 -14 -1 -0 -0 -0 -0 -0 -0 -0 -0 -0 -0 -0
-0 -0 -0 -0 -0 -0 -0 -0 -0 -0 -1 -1 -0 -0 -0 -0 -1 -1 -1 -0 -0 -0 -0 -2 -1 -0 -0 -0 -0 -0 -0 -34 -0 -14 -2 -0 -0 -0 -0 -0 -0 -0 -0 -0 -0
-0 -0 -0 -0 -0 -0 -0 -0 -0 -0 -0 -0 -0 -1 -0 -0 -0 -0 -0 -2 -0 -0 -0 -0 -0 -0 -0 -0 -0 -0 -0 -2 -6 -0 -0 -0 -0 -0 -0 -0 -0 -0 -0 -0 -0
-0 -0 -0 -0 -0 -0 -0 -0 -0 -0 -0 -3 -0 -1 -0 -0 -0 -0 -1 -0 -0 -0 -0 -0 -0 -0 -0 -0 -0 -0 -0 -0 -0 -10 -1 -0 -0 -136 -0 -0 -0 -0 -36 -229 -174
-0 -0 -0 -0 -0 -0 -0 -0 -0 -0 -0 -0 -3 -1 -0 -0 -0 -1 -1 -1 -1 -0 -0 -4 -0 -0 -0 -0 -0 -0 -0 -0 -0 -1 -0 -0 -0 -92 -50 -0 -0 -0 -94 -124 -111
-0 -0 -0 -0 -0 -0 -0 -0 -0 -0 -0 -0 -0 -0 -0 -0 -0 -1 -0 -0 -0 -0 -0 -1 -0 -4 -4 -1 -0 -0 -0 -0 -0 -0 -0 -0 -0 -53 -91 -0 -0 -0 -0 -42 -51
-0 -0 -0 -2 -1 -0 -0 -0 -0 -0 -1 -0 -0 -0 -0 -0 -0 -0 -0 -0 -0 -1 -0 -4 -0 -0 -0 -0 -0 -0 -0 -0 -0 -10 -0 -53 -31 -31 -111 -148 -201 -210 -0 -2 -22
-0 -8 -2 -1 -1 -1 -0 -0 -3 -1 -0 -0 -0 -0 -0 -0 -0 -0 -0 -0 -0 -0 -0 -0 -0 -0 -0 -0 -0 -0 -3 -14 -0 -5 -24 -0 -0 -0 -0 -0 -0 -0 -43 -1 -27
Wind_Speed
13 14 18 24 29 33 36 38 39 39 39 39 39 40 40 42 43 39 39 29 22 26 21 20 19 19 20 23 23 21 40 48 45 42 33 31 31 26 24 33 35 29 22 17 13
13 12 13 12 19 31 41 41 41 42 42 42 41 41 41 42 45 43 35 28 26 24 23 25 23 20 24 25 26 31 44 46 30 34 32 36 34 33 30 35 33 21 16 12 15
16 15 20 22 24 29 35 42 44 43 42 42 42 42 41 41 40 31 24 21 22 21 23 22 24 24 29 25 29 33 48 32 33 32 35 41 40 33 33 34 29 28 14 14 17
22 22 26 27 28 25 24 36 43 41 41 42 42 40 39 35 38 24 21 27 30 23 20 23 25 28 32 33 30 39 41 38 36 36 35 38 38 35 33 37 35 33 19 14 18
26 25 29 31 29 31 28 37 42 40 39 38 37 36 32 36 40 38 44 37 38 26 24 24 29 31 35 33 33 40 37 34 41 43 46 43 47 46 49 39 37 35 25 15 16
27 27 30 31 33 36 34 35 35 39 43 38 34 31 34 46 26 33 33 41 35 29 28 27 29 30 35 39 35 32 39 45 45 45 39 43 48 40 51 32 33 33 28 21 16
30 31 32 35 37 35 34 32 35 40 38 34 29 30 38 43 33 37 41 36 34 32 31 28 30 29 31 40 39 44 50 46 47 43 44 39 50 55 53 36 36 35 33 29 23
34 33 36 36 33 34 33 33 36 36 30 28 26 27 37 29 32 34 37 33 29 32 32 30 27 33 36 33 36 39 41 49 47 40 38 33 62 50 43 34 38 36 37 32 23
36 35 35 33 33 37 37 36 32 27 26 25 29 30 38 31 31 32 28 34 35 34 31 32 31 39 38 44 44 41 52 49 47 37 36 38 61 41 39 38 41 43 41 38 27
36 37 34 32 32 37 38 37 30 25 27 24 28 31 32 37 36 32 28 29 33 33 34 31 32 38 41 44 54 49 49 46 47 34 36 45 58 49 39 38 44 42 44 42 33
37 36 35 32 32 36 37 33 35 30 29 28 29 26 21 17 19 25 36 30 25 28 36 34 38 47 48 43 46 47 47 49 47 39 41 44 55 46 41 40 43 47 47 47 37
38 36 35 31 30 31 32 36 31 24 28 20 21 18 15 17 10 6 18 26 25 34 32 34 48 46 42 43 48 47 50 53 50 43 38 43 56 47 43 43 43 45 48 50 31
39 35 35 31 25 27 30 31 25 21 20 21 20 28 38 33 21 20 21 7 14 33 30 40 46 35 38 40 45 48 50 55 53 44 49 46 55 52 44 44 43 43 44 43 33
38 34 33 33 25 29 26 25 25 20 19 26 24 23 17 12 19 19 25 14 4 18 27 29 30 40 44 45 39 49 41 49 50 45 58 33 57 55 43 44 43 45 45 45 33
38 34 31 27 22 25 22 21 21 16 26 26 22 21 21 34 37 33 33 24 9 4 6 24 23 28 38 43 41 51 42 49 45 50 56 54 48 61 45 47 46 45 46 49 32
39 33 30 23 20 16 18 22 20 23 23 23 27 31 36 31 41 37 36 28 11 6 5 13 16 25 25 32 33 38 41 45 45 48 63 60 47 65 55 50 47 44 49 48 32
39 31 24 18 21 18 23 23 26 27 24 21 29 35 31 25 41 38 33 29 17 27 22 7 11 17 22 28 28 31 33 47 52 58 61 55 49 63 45 47 48 45 49 43 29
41 28 19 16 13 17 26 25 30 24 23 23 28 28 30 36 38 37 34 27 20 6 22 21 15 15 8 21 27 27 32 40 48 57 59 61 53 58 55 55 46 41 47 43 31
41 29 22 19 17 20 27 29 27 26 23 34 35 33 39 42 31 33 33 26 20 26 26 24 12 23 23 22 19 11 27 33 41 41 40 48 49 54 55 53 45 49 47 44 33
38 30 25 20 21 20 24 26 23 22 31 28 32 29 28 43 31 32 26 20 28 26 29 26 22 20 19 20 19 23 14 23 27 41 49 49 48 48 63 58 44 46 47 46 33
34 31 28 27 23 25 29 25 24 18 24 28 26 25 23 22 29 29 18 23 23 33 33 31 26 25 27 25 20 18 11 5 18 30 36 42 44 41 54 44 42 38 38 42 31
35 35 30 31 29 27 28 24 19 19 25 24 26 22 20 18 20 15 6 14 33 28 29 25 25 25 24 26 30 23 22 5 11 25 30 36 42 25 34 36 38 37 38 36 29
37 29 27 30 35 33 24 23 18 12 26 25 19 19 18 12 11 8 4 3 15 28 23 25 22 21 22 17 15 17 14 16 9 20 25 28 31 19 31 38 40 36 38 31 27
33 35 30 27 31 30 28 23 22 19 19 18 14 17 14 10 5 1 6 4 11 17 19 23 21 22 21 22 25 30 25 10 7 14 15 42 42 35 33 38 38 34 32 28 28
33 31 30 34 31 26 23 19 24 12 18 11 14 15 14 9 10 4 8 15 13 16 16 17 16 10 14 17 22 23 21 25 32 22 17 42 39 33 32 35 38 35 34 29 29
33 32 28 28 25 26 24 23 21 27 17 11 11 16 15 8 7 18 18 15 8 9 11 9 10 18 23 23 23 21 26 20 25 22 35 31 35 24 26 27 34 33 36 31 30
28 24 25 27 26 27 21 21 12 26 4 11 14 17 15 11 18 22 17 17 14 8 8 7 7 3 6 18 23 9 5 14 26 23 28 33 33 25 26 30 34 36 34 33 32
Wind_Direction
323 315 309 307 308 311 313 315 319 317 314 312 311 308 304 302 297 298 290 295 296 290 285 287 284 277 270 267 264 267 260 258 260 263 270 272 270 269 278 275 280 275 273 251 203
327 333 322 331 9 359 332 321 314 311 312 313 311 309 308 307 299 292 297 297 290 288 278 272 273 269 267 264 262 256 257 259 270 263 272 268 266 267 274 275 277 280 281 208 190
15 4 11 8 3 358 350 335 324 320 317 314 311 310 310 309 302 302 312 308 299 287 278 274 271 267 263 265 257 259 258 261 270 270 270 265 265 266 271 268 273 278 273 199 196
14 8 7 2 359 354 351 347 334 330 325 319 315 312 310 310 297 311 312 311 308 295 277 270 266 261 264 257 259 263 262 262 266 267 268 264 266 263 265 263 270 277 264 207 201
13 7 5 2 359 356 352 349 341 338 334 330 325 322 320 305 295 297 292 299 299 287 267 263 260 260 262 265 261 259 264 265 264 263 261 263 259 259 258 262 269 271 262 234 219
10 5 3 1 360 356 354 352 349 341 333 332 330 329 318 303 310 304 302 293 296 279 272 262 269 263 268 263 260 270 266 264 263 261 263 260 257 261 250 260 266 267 260 256 246
10 6 4 3 1 0 359 356 348 343 340 338 335 327 314 302 312 306 299 290 287 280 273 270 262 264 269 266 268 266 264 265 259 259 259 262 258 250 243 258 260 261 259 261 263
10 7 6 5 6 4 0 355 352 352 359 1 356 344 325 328 321 309 309 301 285 284 271 272 266 262 262 270 269 266 264 258 259 257 258 255 250 251 253 256 255 257 257 258 261
10 8 8 8 8 5 2 360 0 8 15 16 4 352 337 342 332 320 314 303 292 287 278 272 269 261 262 260 262 259 256 256 260 260 255 248 250 258 256 255 253 253 255 255 258
10 9 9 10 9 7 4 5 11 26 21 17 8 355 353 343 343 331 327 311 292 287 279 269 266 258 255 252 249 254 256 257 256 261 255 254 254 256 258 255 252 252 251 253 256
10 10 10 11 11 8 10 14 15 11 11 13 12 11 13 14 4 348 321 323 301 290 272 271 261 253 253 256 258 259 259 259 259 262 262 258 254 256 255 255 252 250 251 252 255
9 11 11 11 10 12 18 16 16 14 7 22 24 30 22 18 337 1 27 341 319 288 282 271 259 258 261 260 257 258 257 257 259 261 264 260 254 258 257 253 252 251 251 251 254
8 9 10 9 10 20 16 18 26 26 23 32 39 19 334 7 28 33 26 35 348 300 287 272 262 262 260 259 255 254 254 254 257 265 262 262 258 254 257 254 253 251 251 250 248
7 7 9 8 23 15 20 18 22 31 26 20 31 34 320 9 37 33 24 22 104 337 297 296 276 258 259 257 258 254 259 258 259 259 251 260 254 251 255 255 254 250 248 248 245
5 5 5 12 13 16 15 11 15 38 9 13 27 22 17 8 1 0 12 27 39 97 78 297 301 273 264 256 257 257 265 259 260 257 254 252 257 249 253 252 251 249 247 246 243
2 1 4 19 18 16 9 6 30 18 8 8 9 7 347 4 342 340 347 17 60 85 123 203 211 285 277 270 263 264 258 260 258 255 250 247 251 248 247 247 249 253 247 246 241
0 357 7 23 16 16 8 17 9 9 5 7 354 357 359 3 322 322 309 321 54 19 8 167 184 201 200 272 269 265 256 252 251 247 249 248 251 247 249 248 248 252 251 249 240
358 3 18 22 16 12 12 11 2 5 1 355 356 352 356 353 326 324 306 298 11 113 17 300 273 20 18 214 250 267 252 248 249 249 251 249 252 244 247 249 251 255 256 250 240
2 14 17 21 19 17 12 6 5 4 1 351 351 353 345 336 349 337 335 316 344 337 310 308 337 313 242 219 186 312 261 252 259 261 260 253 253 253 247 248 251 250 253 249 239
8 14 23 17 11 20 15 8 9 7 2 2 357 358 353 342 348 345 343 344 311 328 317 318 263 257 305 280 209 198 175 265 260 259 255 255 254 250 240 241 249 250 248 247 248
14 13 20 15 26 21 11 9 8 15 14 9 360 357 0 3 356 347 352 337 323 303 310 289 287 262 278 250 213 173 159 188 277 264 263 258 256 252 242 240 245 253 252 250 247
13 11 15 13 18 19 11 13 13 19 13 11 11 10 7 6 12 14 35 239 308 311 302 289 279 253 241 243 252 301 296 304 209 269 264 265 259 267 242 245 245 252 255 251 239
8 12 18 25 12 10 14 13 22 357 13 18 9 17 17 16 14 25 56 40 254 291 289 290 247 252 270 324 338 327 348 305 219 279 267 265 252 266 252 247 245 253 254 236 223
11 8 13 22 18 13 12 16 16 17 19 9 27 25 22 345 348 13 257 198 248 254 243 227 214 222 228 233 278 261 246 209 197 244 256 222 240 253 259 249 243 248 241 220 208
13 12 14 3 11 11 11 18 12 322 25 28 30 23 349 351 312 150 261 267 264 244 230 234 210 194 222 234 242 240 237 239 245 288 218 229 241 251 252 251 240 243 224 206 197
10 9 11 2 10 11 18 19 17 303 298 35 347 331 327 334 286 284 277 265 190 183 137 88 196 250 259 250 239 239 247 228 229 192 223 234 230 260 261 261 236 233 213 200 189
13 14 11 8 10 12 18 11 348 296 8 295 317 321 329 320 291 278 253 236 211 163 127 98 81 204 204 261 264 159 168 189 212 231 216 201 217 247 245 241 229 225 224 191 181